Change the Weather History Date:

Monday, April 28, 2014

  Actual Average Record
Temperature  
Mean Temperature 42 °F -  
Max Temperature 49 °F 59 °F 77 °F (2001)
Min Temperature 35 °F 40 °F 31 °F (2012)
Degree Days  
Heating Degree Days 24    
Moisture  
Dew Point 29 °F    
Average Humidity 70    
Maximum Humidity 100    
Minimum Humidity 29    
Precipitation  
Precipitation 0.05 in - - ()
Sea Level Pressure  
Sea Level Pressure 30.06 in    
Wind  
Wind Speed 8 mph (NW)    
Max Wind Speed 23 mph    
Max Gust Speed 30 mph    
Visibility 10 miles    
Events Rain    
Averages and records for this station are not official NWS values.
T = Trace of Precipitation, MM = Missing Value Source: NWS Daily Summary

Daily Weather History Graph

Daily Weather History Graph

Search for Another Location

Airport or City:

Trip Planner

Search our weather history database for the weather conditions in past years. The results will help you decide how hot, cold, wet, or windy it might be!

Date:

Astronomy

Apr. 28, 2014 Rise Set
Actual Time 6:29 AM MDT 8:21 PM MDT
Civil Twilight 5:59 AM MDT 8:51 PM MDT
Nautical Twilight 5:23 AM MDT 9:27 PM MDT
Astronomical Twilight 4:45 AM MDT 10:06 PM MDT
Moon 6:10 AM MDT (4/28) 8:03 PM MDT (4/28)
Length of Visible Light 14h 51m
Length of Day
13h 52m
Waning Crescent, 0% of the Moon is Illuminated
Apr 28
Waning Crescent
Apr 29
New
May 6
First Quarter
May 14
Full
May 21
Last Quarter

Hourly Weather History & Observations

Time (MDT) Temp. Windchill Dew Point Humidity Pressure Visibility Wind Dir Wind Speed Gust Speed Precip Events Conditions
12:23 AM 39.2 °F 35.0 °F 39.2 °F 100% 29.94 in 10.0 mi SE 5.8 mph - N/A   Overcast
12:48 AM 39.2 °F 33.6 °F 39.2 °F 100% 29.94 in 10.0 mi South 8.1 mph - N/A   Overcast
12:53 AM 39.2 °F 34.2 °F 39.2 °F 100% 29.94 in 10.0 mi South 6.9 mph - N/A   Overcast
12:56 AM 39.2 °F 35.0 °F 39.2 °F 100% 29.94 in 10.0 mi South 5.8 mph - N/A   Overcast
12:58 AM 39.2 °F 34.2 °F 39.2 °F 100% 29.91 in 10.0 mi South 6.9 mph - N/A   Overcast
1:14 AM 39.2 °F 30.8 °F 39.2 °F 100% 29.95 in 10.0 mi SSW 15.0 mph - N/A   Overcast
1:16 AM 39.2 °F 30.8 °F 39.2 °F 100% 29.95 in 10.0 mi SSW 15.0 mph - N/A   Overcast
1:31 AM 37.4 °F 30.3 °F 37.4 °F 100% 29.95 in 9.0 mi SSW 10.4 mph - N/A Rain Light Rain
1:55 AM 37.4 °F 32.8 °F 35.6 °F 93% 29.96 in 9.0 mi South 5.8 mph - N/A Rain Light Rain
1:58 AM 36.5 °F 32.7 °F 36.3 °F 99% 29.93 in 9.0 mi South 4.6 mph - 0.05 in Rain Light Rain
2:02 AM 37.4 °F 33.8 °F 35.6 °F 93% 29.96 in 10.0 mi South 4.6 mph - N/A   Mostly Cloudy
2:09 AM 37.4 °F 31.4 °F 35.6 °F 93% 29.96 in 10.0 mi East 8.1 mph - N/A   Mostly Cloudy
2:19 AM 35.6 °F 30.7 °F 35.6 °F 100% 29.95 in 10.0 mi ESE 5.8 mph - N/A   Scattered Clouds
2:34 AM 35.6 °F 32.8 °F 35.6 °F 100% 29.95 in 10.0 mi SSE 3.5 mph - N/A   Mostly Cloudy
2:58 AM 36.3 °F 32.5 °F 36.1 °F 99% 29.93 in 10.0 mi SSW 4.6 mph - N/A   Overcast
3:33 AM 37.4 °F 32.1 °F 35.6 °F 93% 29.96 in 10.0 mi South 6.9 mph - N/A   Mostly Cloudy
3:38 AM 37.4 °F 32.8 °F 37.4 °F 100% 29.97 in 10.0 mi SSW 5.8 mph - N/A   Mostly Cloudy
3:43 AM 37.4 °F 32.1 °F 35.6 °F 93% 29.97 in 10.0 mi SW 6.9 mph - N/A   Mostly Cloudy
3:48 AM 37.4 °F 32.8 °F 35.6 °F 93% 29.97 in 10.0 mi SSW 5.8 mph - N/A   Scattered Clouds
3:58 AM 37.2 °F - 36.0 °F 95% 29.95 in 10.0 mi South 2.3 mph - N/A   Scattered Clouds
4:48 AM 39.2 °F - 28.4 °F 65% 29.99 in 10.0 mi Variable 1.2 mph - N/A   Mostly Cloudy
4:58 AM 38.8 °F - 28.4 °F 66% 29.94 in 10.0 mi West 2.3 mph - N/A   Mostly Cloudy
5:03 AM 39.2 °F 37.0 °F 26.6 °F 61% 29.99 in 10.0 mi WNW 3.5 mph - N/A   Scattered Clouds
5:18 AM 37.4 °F - 30.2 °F 75% 29.99 in 10.0 mi NNW 2.3 mph - N/A   Mostly Cloudy
5:58 AM 37.9 °F 32.1 °F 32.9 °F 82% 29.98 in 10.0 mi NW 8.1 mph - N/A   Overcast
6:03 AM 37.4 °F 32.1 °F 32.0 °F 81% 30.01 in 10.0 mi NNW 6.9 mph - N/A   Overcast
6:33 AM 37.4 °F 30.8 °F 32.0 °F 81% 30.03 in 10.0 mi NNW 9.2 mph - N/A   Mostly Cloudy
6:48 AM 35.6 °F 28.6 °F 32.0 °F 87% 30.04 in 10.0 mi NNW 9.2 mph - N/A   Scattered Clouds
6:58 AM 35.8 °F 29.4 °F 30.4 °F 81% 30.02 in 10.0 mi NNW 8.1 mph - N/A   Partly Cloudy
7:18 AM 35.6 °F 28.6 °F 28.4 °F 75% 30.06 in 10.0 mi North 9.2 mph - N/A   Mostly Cloudy
7:28 AM 35.6 °F 28.6 °F 28.4 °F 75% 30.06 in 10.0 mi North 9.2 mph - N/A   Scattered Clouds
7:33 AM 35.6 °F 29.2 °F 28.4 °F 75% 30.06 in 10.0 mi NNW 8.1 mph - N/A   Mostly Cloudy
7:43 AM 35.6 °F 31.7 °F 28.4 °F 75% 30.07 in 10.0 mi North 4.6 mph - N/A   Scattered Clouds
7:58 AM 36.5 °F 29.7 °F 28.6 °F 73% 30.07 in 10.0 mi NNW 9.2 mph - N/A   Partly Cloudy
8:58 AM 38.7 °F 32.9 °F 27.1 °F 63% 30.09 in 10.0 mi NNW 8.1 mph - N/A   Scattered Clouds
9:58 AM 39.9 °F 32.5 °F 22.5 °F 50% 30.11 in 10.0 mi NNW 12.7 mph 18.4 mph N/A   Scattered Clouds
10:58 AM 40.8 °F 35.0 °F 24.4 °F 52% 30.13 in 10.0 mi North 9.2 mph - N/A   Mostly Cloudy
11:23 AM 41.0 °F 34.3 °F 24.8 °F 53% 30.15 in 10.0 mi NNW 11.5 mph - N/A   Overcast
11:47 AM 41.0 °F 33.5 °F 23.0 °F 49% 30.15 in 8.0 mi NNW 13.8 mph 18.4 mph N/A   Unknown
12:21 PM 41.0 °F 33.5 °F 21.2 °F 45% 30.16 in 10.0 mi NW 13.8 mph - N/A   Mostly Cloudy
12:58 PM 41.2 °F 37.3 °F 27.1 °F 57% 30.14 in 10.0 mi Variable 5.8 mph - 0.00 in   Overcast
1:17 PM 41.0 °F - 23.0 °F 49% 30.15 in 10.0 mi Variable 2.3 mph - N/A   Unknown
1:28 PM 42.8 °F 37.0 °F 21.2 °F 42% 30.15 in 10.0 mi NW 10.4 mph - N/A   Mostly Cloudy
1:58 PM 44.6 °F 36.9 °F 20.1 °F 38% 30.14 in 10.0 mi NW 18.4 mph 26.5 mph N/A   Mostly Cloudy
2:58 PM 45.9 °F 38.8 °F 20.1 °F 36% 30.15 in 10.0 mi NW 17.3 mph 25.3 mph N/A   Mostly Cloudy
3:09 PM 46.4 °F 39.5 °F 17.6 °F 32% 30.16 in 10.0 mi NW 17.3 mph 23.0 mph N/A   Scattered Clouds
3:33 PM 44.6 °F 36.6 °F 15.8 °F 31% 30.17 in 10.0 mi NNW 19.6 mph - N/A   Mostly Cloudy
3:58 PM 47.5 °F - 16.5 °F 29% 30.15 in 10.0 mi NW 16.1 mph 20.7 mph N/A   Mostly Cloudy
4:58 PM 46.9 °F - 22.6 °F 38% 30.16 in 10.0 mi North 13.8 mph 29.9 mph N/A   Mostly Cloudy
5:31 PM 48.2 °F - 21.2 °F 34% 30.19 in 10.0 mi NNW 10.4 mph 20.7 mph N/A   Scattered Clouds
5:58 PM 47.7 °F - 23.5 °F 39% 30.18 in 10.0 mi North 23.0 mph 28.8 mph N/A   Mostly Cloudy
6:58 PM 45.5 °F 39.2 °F 21.0 °F 38% 30.22 in 10.0 mi North 13.8 mph 17.3 mph N/A   Scattered Clouds
7:48 PM 44.6 °F 37.4 °F 19.4 °F 37% 30.25 in 10.0 mi North 16.1 mph - N/A   Mostly Cloudy
7:58 PM 44.2 °F 36.7 °F 20.5 °F 39% 30.24 in 10.0 mi North 17.3 mph 23.0 mph N/A   Mostly Cloudy
8:58 PM 42.1 °F 36.1 °F 20.1 °F 42% 30.26 in 10.0 mi North 10.4 mph - N/A   Scattered Clouds
9:58 PM 41.5 °F 37.8 °F 22.6 °F 47% 30.28 in 10.0 mi North 5.8 mph - N/A   Scattered Clouds
10:58 PM 38.8 °F 36.5 °F 22.3 °F 51% 30.30 in 10.0 mi East 3.5 mph - N/A   Partly Cloudy
11:58 PM 37.6 °F 34.0 °F 22.5 °F 54% 30.32 in 10.0 mi East 4.6 mph - N/A   Partly Cloudy